Carlsbad, NM

6:49 AM MDT on April 23, 2017 (GMT -0600)
Cavern City

Weather History for KCNM - October, 2012

Change the Weather History Date:

Thursday, October 11, 2012

  Actual Average Record
Temperature  
Mean Temperature 71 °F -  
Max Temperature 82 °F 80 °F 96 °F (1979)
Min Temperature 60 °F 50 °F 39 °F (1973)
Cooling Degree Days 6    
Growing Degree Days 21 (Base 50)    
Moisture  
Dew Point 57 °F    
Average Humidity 68    
Maximum Humidity 81    
Minimum Humidity 42    
Precipitation  
Precipitation 0.00 in - - ()
Sea Level Pressure  
Sea Level Pressure 29.98 in    
Wind  
Wind Speed 5 mph (SE)    
Max Wind Speed 9 mph    
Max Gust Speed -    
Visibility 10 miles    
Events      
Averages and records for this station are not official NWS values.
T = Trace of Precipitation, MM = Missing Value Source: NWS Daily Summary

Daily Weather History Graph

Daily Weather History Graph

Search for Another Location

Airport or City:

Trip Planner

Search our weather history database for the weather conditions in past years. The results will help you decide how hot, cold, wet, or windy it might be!

Date:

Astronomy

Oct. 11, 2012 Rise Set
Actual Time 6:58 AM MDT 6:28 PM MDT
Civil Twilight 6:33 AM MDT 6:53 PM MDT
Nautical Twilight 6:05 AM MDT 7:21 PM MDT
Astronomical Twilight 5:36 AM MDT 7:49 PM MDT
Moon 2:52 AM MDT (10/11) 3:55 PM MDT (10/11)
Length of Visible Light 12h 19m
Length of Day
11h 30m
Waning Crescent, 18% of the Moon is Illuminated
Oct 11
Waning Crescent
Oct 15
New
Oct 21
First Quarter
Oct 29
Full
Nov 6
Last Quarter

Hourly Weather History & Observations

Time (MDT) Temp. Heat Index Dew Point Humidity Pressure Visibility Wind Dir Wind Speed Gust Speed Precip Events Conditions
12:02 AM 60.8 °F - 51.8 °F 72% 30.10 in 10.0 mi SSE 5.8 mph - N/A   Overcast
12:42 AM 60.8 °F - 53.6 °F 77% 30.09 in 10.0 mi SSE 8.1 mph - N/A   Overcast
12:53 AM 61.0 °F - 53.1 °F 75% 29.98 in 10.0 mi SSE 8.1 mph - N/A   Overcast
1:53 AM 62.1 °F - 53.1 °F 72% 29.97 in 10.0 mi SSE 6.9 mph - N/A   Overcast
2:53 AM 62.1 °F - 53.1 °F 72% 29.96 in 10.0 mi SE 4.6 mph - N/A   Overcast
3:53 AM 62.1 °F - 54.0 °F 75% 29.95 in 10.0 mi SE 4.6 mph - N/A   Overcast
4:53 AM 62.1 °F - 54.0 °F 75% 29.95 in 10.0 mi SE 4.6 mph - N/A   Overcast
5:53 AM 62.1 °F - 54.0 °F 75% 29.96 in 10.0 mi ESE 4.6 mph - N/A   Overcast
6:22 AM 62.6 °F - 53.6 °F 72% 30.08 in 10.0 mi ESE 4.6 mph - N/A   Overcast
6:53 AM 62.1 °F - 55.0 °F 78% 29.97 in 10.0 mi SE 3.5 mph - N/A   Overcast
7:53 AM 62.1 °F - 55.0 °F 78% 30.00 in 10.0 mi ESE 5.8 mph - N/A   Overcast
8:53 AM 64.0 °F - 55.9 °F 75% 30.01 in 10.0 mi ESE 4.6 mph - N/A   Overcast
9:22 AM 64.4 °F - 57.2 °F 77% 30.12 in 9.0 mi Calm Calm - N/A   Scattered Clouds
9:53 AM 64.0 °F - 57.0 °F 78% 30.01 in 10.0 mi SE 3.5 mph - N/A   Clear
10:53 AM 68.0 °F - 57.0 °F 68% 30.00 in 10.0 mi SE 5.8 mph - N/A   Clear
11:53 AM 69.1 °F - 57.9 °F 68% 29.98 in 10.0 mi SE 5.8 mph - N/A   Clear
12:53 PM 73.0 °F - 59.0 °F 61% 29.95 in 10.0 mi SSE 9.2 mph - N/A   Partly Cloudy
1:53 PM 75.0 °F - 59.0 °F 57% 29.91 in 10.0 mi SSE 8.1 mph - N/A   Clear
2:53 PM 80.1 °F 80.7 °F 59.0 °F 48% 29.88 in 10.0 mi Calm Calm - N/A   Clear
3:53 PM 82.4 °F 82.0 °F 57.2 °F 42% 30.00 in 10.0 mi East 6.9 mph - N/A   Clear
4:53 PM 81.0 °F 80.8 °F 55.9 °F 42% 29.86 in 10.0 mi ESE 6.9 mph - N/A   Clear
5:53 PM 81.0 °F 80.8 °F 55.9 °F 42% 29.87 in 10.0 mi SE 5.8 mph - N/A   Clear
6:53 PM 73.9 °F - 57.9 °F 57% 29.90 in 10.0 mi Calm Calm - N/A   Clear
7:53 PM 69.1 °F - 57.9 °F 68% 29.92 in 10.0 mi NW 5.8 mph - N/A   Clear
8:53 PM 68.0 °F - 57.9 °F 70% 29.95 in 10.0 mi Calm Calm - N/A   Clear
9:53 PM 69.8 °F - 57.2 °F 64% 30.09 in 10.0 mi Calm Calm - N/A   Clear
10:53 PM 70.0 °F - 62.1 °F 76% 29.96 in 10.0 mi ESE 4.6 mph - N/A   Scattered Clouds
11:01 PM 71.6 °F - 62.6 °F 73% 30.09 in 10.0 mi ESE 5.8 mph - N/A   Mostly Cloudy
11:53 PM 71.1 °F - 64.9 °F 81% 29.94 in 10.0 mi ESE 5.8 mph - N/A   Overcast